Location: Asheville, NC
(35.6000°N, 82.5500°W)
Time: 19:14:40

NO-84 - Pass Details

Date: 16 March 2018
Orbit: 339 x 558 km, 55.0° (Epoch: 15 March)

Event Time Altitude Azimuth Distance (km) Brightness Sun altitude
Exits shadow 06:28:33 23° 302° (WNW) 1,053 ? -15.2°
Maximum altitude 06:30:39 57° 231° (SW) 541 ? -14.8°
Drops below altitude 10° 06:34:01 10° 151° (SSE) 1,522 ? -14.1°
Sets 06:36:02 0° 147° (SSE) 2,343 ? -13.7°
